Stations météo

Publicité
Beauvais, France (7055): Température de l'air & dewpoint: 20.09.2017 12:00:00 - 26.09.2017 12:00:00 (CEST)Beauvais, France (7055): Température de l'air 5cm: 20.09.2017 12:00:00 - 26.09.2017 12:00:00 (CEST)Beauvais, France (7055): Température de l'air -20cm & Température de l'air -100cm: 20.09.2017 12:00:00 - 26.09.2017 12:00:00 (CEST)Beauvais, France (7055): Vitesse du vent & gusts: 20.09.2017 12:00:00 - 26.09.2017 12:00:00 (CEST)Beauvais, France (7055): Direction du vent: 20.09.2017 12:00:00 - 26.09.2017 12:00:00 (CEST)Beauvais, France (7055): reduced air pressure: 20.09.2017 12:00:00 - 26.09.2017 12:00:00 (CEST)Beauvais, France (7055): visibility: 20.09.2017 12:00:00 - 26.09.2017 12:00:00 (CEST)Beauvais, France (7055): Ensoleillement: 20.09.2017 12:00:00 - 26.09.2017 12:00:00 (CEST)Beauvais, France (7055): Quantités de précipitations: 20.09.2017 12:00:00 - 26.09.2017 12:00:00 (CEST)
Date & Time tt [°C] td [°C] tt 5cm [°C] tt -20cm [°C] tt -100cm [°C] ff [km/h] ff [knt] fx [km/h] fx [knt] dd ppp [hPa] vv [km] sd [min] rr [mm]
26.09.2017 12:00:00 18,8 12,5 25,2 15,3 15,3 4 2 11 6 NE 1021,2 9 46 0,0
26.09.2017 11:00:00 17,6 13,1 19,8 15,3 15,3 3 2 10 6 NNE 1021,0 6 55 0,0
26.09.2017 10:00:00 15,8 12,5 13,9 15,3 15,3 7 4 16 9 N 1021,0 5 55 0,0
26.09.2017 09:00:00 12,4 11,5 11,5 15,2 15,3 5 3 11 6 W 1021,1 2,9 13 0,0
26.09.2017 08:00:00 12,7 11,6 11,9 15,2 15,3 6 3 9 5 NNW 1020,6 4,0 0 0,0
26.09.2017 07:00:00 13,5 11,9 13,0 15,3 15,3 4 2 9 5 NW 1020,1 6 0 0,0
26.09.2017 06:00:00 14,1 12,7 13,7 15,2 15,3 4 2 13 7 WNW 1020,0 6 0 0,0
26.09.2017 05:00:00 13,9 12,5 13,5 15,2 15,3 3 2 6 3 NNW 1019,7 5 0 0,0
26.09.2017 04:00:00 14,6 12,8 14,2 15,2 15,3 3 2 10 6 NNW 1019,5 8 0 0,0
26.09.2017 03:00:00 15,0 13,2 14,4 15,2 15,3 9 5 12 6 WNW 1019,8 10 0 0,0
26.09.2017 02:00:00 15,2 12,7 14,4 15,2 15,3 2 1 9 5 NE 1019,7 19 0 0,0
26.09.2017 01:00:00 15,3 12,8 14,5 15,2 15,3 4 2 16 9 ESE 1019,8 20 0 0,0
26.09.2017 00:00:00 16,3 12,5 14,7 15,2 15,3 9 5 16 9 NNE 1020,1 14 0 0,0
25.09.2017 23:00:00 15,6 13,1 15,1 15,1 15,3 5 3 11 6 NNW 1020,0 21 0 0,0
25.09.2017 22:00:00 16,1 13,0 15,1 15,1 15,3 6 3 19 11 NNE 1019,7 22 0 0,0
25.09.2017 21:00:00 16,1 13,0 15,0 15,1 15,3 6 3 11 6 NE 1019,5 25 0 0,0
25.09.2017 20:00:00 16,9 12,6 15,2 15,1 15,3 8 4 8 5 E 1019,0 23 0 0,0
25.09.2017 19:00:00 18,3 13,4 17,8 15,0 15,3 3 2 5 3 ENE 1018,7 23 0 0,0
25.09.2017 18:00:00 18,3 12,7 17,4 15,0 15,3 0 0 6 3 N 1018,6 24 0 0,0
25.09.2017 17:00:00 18,0 13,3 17,3 15,0 15,3 5 3 12 7 ESE 1018,6 20 0 0,0
25.09.2017 16:00:00 17,9 13,0 17,7 15,0 15,3 7 4 13 7 ESE 1018,2 24 0 0,0
25.09.2017 15:00:00 17,2 13,3 15,9 15,0 15,3 8 4 10 5 E 1018,2 22 0 0,0
25.09.2017 14:00:00 15,7 13,2 15,0 15,0 15,3 5 3 12 7 E 1018,2 11 0 0,6
25.09.2017 13:00:00 16,3 11,9 16,3 15,0 15,3 5 3 12 6 SE 1018,4 14 0 0,0
25.09.2017 12:00:00 16,2 11,1 17,7 15,0 15,3 11 6 19 10 E 1018,3 20 0 0,0
25.09.2017 11:00:00 16,0 11,2 16,9 15,0 15,3 16 9 29 15 E 1018,4 24 44 0,0
25.09.2017 10:00:00 15,2 11,2 14,7 15,0 15,3 12 6 22 12 E 1018,4 21 60 0,0
25.09.2017 09:00:00 14,2 10,6 12,9 15,0 15,3 10 5 18 10 E 1018,2 20 38 0,0
25.09.2017 08:00:00 13,6 10,2 12,6 15,0 15,3 11 6 17 9 E 1017,9 21 0 0,0
25.09.2017 07:00:00 14,1 10,1 12,8 15,0 15,3 13 7 18 10 E 1017,8 21 0 0,0
25.09.2017 06:00:00 14,0 10,6 12,9 15,0 15,3 10 5 14 7 E 1018,0 20 0 0,0
25.09.2017 05:00:00 14,2 10,4 13,3 15,0 15,3 10 5 14 7 E 1018,2 25 0 0,0
25.09.2017 04:00:00 14,2 10,6 13,1 15,0 15,3 9 5 14 8 E 1018,6 26 0 0,0
25.09.2017 03:00:00 14,3 10,7 13,2 14,9 15,3 7 4 14 8 E 1018,9 26 0 0,0
25.09.2017 02:00:00 15,2 11,0 13,5 14,9 15,3 12 6 18 10 E 1019,0 27 0 0,0
25.09.2017 01:00:00 15,2 11,0 14,0 14,9 15,3 9 5 16 8 E 1019,5 31 0 0,0
25.09.2017 00:00:00 15,4 11,2 14,2 14,8 15,3 8 5 22 12 E 1019,8 12 0 0,0
24.09.2017 23:00:00 16,3 11,0 14,4 14,8 15,3 12 6 24 13 E 1019,9 37 0 0,0
24.09.2017 22:00:00 16,1 10,8 14,4 14,8 15,3 13 7 23 13 E 1019,7 38 0 0,0
24.09.2017 21:00:00 16,6 10,7 14,1 14,7 15,3 13 7 18 10 E 1019,6 40 0 0,0
24.09.2017 20:00:00 17,2 10,6 14,7 14,7 15,3 9 5 18 10 E 1019,3 43 0 0,0
24.09.2017 19:00:00 18,9 11,0 16,8 14,6 15,3 9 5 19 10 SE 1019,4 44 0 0,0
24.09.2017 18:00:00 21,6 9,2 19,7 14,6 15,3 14 8 21 12 SSE 1019,1 42 33 0,0
24.09.2017 17:00:00 22,4 9,5 23,2 14,5 15,3 14 8 24 13 SE 1019,1 20 60 0,0
24.09.2017 16:00:00 22,2 9,4 24,8 14,5 15,3 14 8 24 13 SE 1019,4 22 60 0,0
24.09.2017 15:00:00 21,9 10,1 25,8 14,5 15,4 16 9 29 15 SE 1019,6 19 60 0,0
24.09.2017 14:00:00 20,8 11,4 26,2 14,5 15,3 16 8 22 12 ESE 1020,2 19 60 0,0
24.09.2017 13:00:00 19,9 11,6 26,5 14,5 15,3 9 5 19 10 SE 1020,5 5 60 0,0
24.09.2017 12:00:00 17,7 12,4 22,6 14,6 15,3 7 4 14 8 SE 1020,9 18 60 0,0
24.09.2017 11:00:00 15,2 11,0 18,0 14,6 15,4 6 4 11 6 SE 1021,4 18 60 0,0
24.09.2017 10:00:00 12,8 10,5 12,9 14,7 15,4 6 3 11 6 ESE 1021,3 10 60 0,0
24.09.2017 09:00:00 9,4 9,1 7,4 14,7 15,4 0 0 3 2 N 1021,1 7 39 0,0
24.09.2017 08:00:00 7,4 6,8 6,6 14,7 15,4 4 2 6 3 W 1021,1 8 0 0,0
24.09.2017 07:00:00 7,2 6,6 6,0 14,8 15,4 3 2 5 3 NE 1020,8 7 0 0,0
24.09.2017 06:00:00 7,1 6,2 5,8 14,8 15,4 0 0 3 1 N 1020,6 6 0 0,0
24.09.2017 05:00:00 7,2 6,3 6,2 14,8 15,4 4 2 6 3 NNE 1021,0 11 0 0,0
24.09.2017 04:00:00 7,6 6,4 6,1 14,8 15,4 3 2 4 2 NNE 1021,2 14 0 0,0
24.09.2017 03:00:00 7,7 6,5 6,3 14,8 15,4 0 0 6 3 N 1021,5 15 0 0,0
24.09.2017 02:00:00 8,1 6,6 7,0 14,8 15,4 3 2 4 2 N 1021,5 22 0 0,0
24.09.2017 01:00:00 9,1 7,4 7,5 14,8 15,4 0 0 5 3 N 1021,5 19 0 0,0
24.09.2017 00:00:00 10,0 8,1 8,1 14,8 15,4 4 2 5 3 NE 1021,5 20 0 0,0
23.09.2017 23:00:00 10,9 8,3 8,6 14,8 15,4 4 2 8 4 NNW 1021,7 25 0 0,0
23.09.2017 22:00:00 11,9 8,9 8,2 14,7 15,4 0 0 10 5 N 1021,7 32 0 0,0
23.09.2017 21:00:00 12,8 8,9 10,4 14,7 15,4 9 5 32 17 ENE 1021,6 34 0 0,0
23.09.2017 20:00:00 15,0 8,2 11,3 14,6 15,4 5 3 12 7 E 1021,2 41 0 0,0
23.09.2017 19:00:00 17,8 9,2 15,5 14,6 15,4 3 2 10 6 SSE 1020,7 20 11 0,0
23.09.2017 18:00:00 19,5 9,1 19,4 14,6 15,4 7 4 12 7 SE 1021,0 47 60 0,0
23.09.2017 17:00:00 19,8 8,8 22,7 14,6 15,4 7 4 19 10 SW 1021,2 44 60 0,0
23.09.2017 16:00:00 19,6 8,0 21,9 14,6 15,4 10 5 16 9 SSE 1021,8 38 46 0,0
23.09.2017 15:00:00 18,7 8,9 24,0 14,5 15,4 9 5 16 9 ESE 1022,5 37 56 0,0
23.09.2017 14:00:00 18,1 10,0 25,5 14,6 15,4 8 4 15 8 SSE 1022,9 36 58 0,0
23.09.2017 13:00:00 17,5 10,1 25,0 14,6 15,4 5 3 13 7 SSE 1023,3 19 60 0,0
23.09.2017 12:00:00 15,4 11,4 20,9 14,7 15,4 4 2 10 5 SSE 1023,9 9 42 0,0
23.09.2017 11:00:00 13,7 10,3 19,3 14,7 15,4 4 2 7 4 ESE 1024,0 11 58 0,0
23.09.2017 10:00:00 10,3 10,0 14,5 14,8 15,4 0 0 5 3 N 1024,1 10 60 0,0
23.09.2017 09:00:00 7,1 7,0 7,3 14,8 15,4 3 1 5 3 W 1024,2 0,8 41 0,0
23.09.2017 08:00:00 5,0 4,7 3,8 14,9 15,4 3 2 4 2 NW 1024,3 0,2 0 0,0
23.09.2017 07:00:00 4,5 4,1 3,8 14,9 15,4 3 2 4 2 WNW 1024,1 0,3 0 0,2
23.09.2017 06:00:00 4,4 4,0 3,3 15,0 15,4 3 2 5 3 WNW 1024,2 1,9 0 0,0
23.09.2017 05:00:00 4,9 4,6 3,8 15,0 15,4 6 3 8 5 NW 1024,4 4,8 0 0,0
23.09.2017 04:00:00 4,9 4,2 4,2 15,0 15,4 3 1 5 3 NW 1024,8 5 0 0,0
23.09.2017 03:00:00 4,8 3,9 4,1 15,0 15,5 4 2 5 3 NW 1024,9 7 0 0,0
23.09.2017 02:00:00 6,6 6,2 3,9 15,0 15,4 4 2 6 3 NNW 1024,9 6 0 0,0
23.09.2017 01:00:00 7,2 5,8 5,7 15,0 15,4 4 2 6 3 NW 1024,7 5 0 0,0
23.09.2017 00:00:00 8,7 8,1 6,6 15,0 15,4 4 2 8 4 NNW 1024,5 19 0 0,0
22.09.2017 23:00:00 9,3 7,9 6,2 15,0 15,4 7 4 10 6 WNW 1024,6 19 0 0,0
22.09.2017 22:00:00 9,9 8,0 8,1 15,0 15,4 6 4 23 12 NW 1024,3 28 0 0,0
22.09.2017 21:00:00 12,3 8,8 9,9 14,9 15,4 9 5 16 9 N 1023,7 44 0 0,0
22.09.2017 20:00:00 13,5 8,8 11,3 14,8 15,4 10 6 15 8 NNW 1023,1 47 1 0,0
22.09.2017 19:00:00 17,0 8,7 15,3 14,8 15,4 12 7 19 10 NW 1022,4 33 49 0,0
22.09.2017 18:00:00 19,2 7,6 19,4 14,8 15,4 10 6 18 10 W 1022,0 33 60 0,0
22.09.2017 17:00:00 19,4 6,8 22,7 14,7 15,4 9 5 23 12 WNW 1021,9 28 60 0,0
22.09.2017 16:00:00 19,3 7,4 26,4 14,7 15,4 10 6 21 11 W 1021,9 38 55 0,0
22.09.2017 15:00:00 18,8 7,2 24,0 14,7 15,5 10 5 22 12 W 1021,9 60 46 0,0
22.09.2017 14:00:00 17,8 9,2 22,5 14,7 15,5 15 8 23 12 WNW 1022,0 56 45 0,0
22.09.2017 13:00:00 16,8 10,4 20,8 14,7 15,5 11 6 18 10 NW 1021,9 51 40 0,0
22.09.2017 12:00:00 16,5 11,2 18,6 14,7 15,5 13 7 23 12 NNW 1021,9 35 9 0,0
22.09.2017 11:00:00 15,1 12,6 15,6 14,7 15,5 10 5 15 8 NW 1021,8 38 0 0,0
22.09.2017 10:00:00 14,0 12,7 13,7 14,7 15,5 11 6 15 8 WNW 1021,5 32 0 0,0
22.09.2017 09:00:00 13,1 12,5 12,5 14,8 15,5 4 2 6 3 W 1021,1 17 0 0,0
22.09.2017 08:00:00 12,5 11,7 12,2 14,7 15,5 3 2 4 2 W 1020,7 14 0 0,0
22.09.2017 07:00:00 12,5 11,6 12,5 14,8 15,5 0 0 6 3 N 1020,2 12 0 0,0
22.09.2017 06:00:00 12,4 11,6 12,6 14,8 15,5 4 2 9 5 W 1020,1 10 0 0,0
22.09.2017 05:00:00 12,2 11,4 11,4 14,8 15,5 4 2 7 4 NW 1020,2 14 0 0,0
22.09.2017 04:00:00 11,8 11,0 11,0 14,8 15,5 5 3 9 5 WNW 1019,9 16 0 0,0
22.09.2017 03:00:00 12,0 11,4 10,1 14,8 15,5 10 5 13 7 W 1020,2 16 0 0,0
22.09.2017 02:00:00 10,5 9,7 8,2 14,8 15,5 2 1 9 5 NNE 1019,9 22 0 0,0
22.09.2017 01:00:00 9,7 8,9 7,7 14,8 15,5 9 5 24 13 NW 1019,6 19 0 0,0
22.09.2017 00:00:00 9,2 6,5 7,8 14,8 15,5 3 1 3 2 NW 1019,2 33 0 0,0
21.09.2017 23:00:00 10,1 8,2 8,2 14,7 15,5 2 1 4 2 NE 1019,1 45 0 0,0
21.09.2017 22:00:00 10,9 8,3 8,5 14,7 15,5 4 2 6 4 ENE 1019,0 40 0 0,0
21.09.2017 21:00:00 12,9 8,6 9,4 14,7 15,5 5 3 7 4 NNE 1018,7 52 0 0,0
21.09.2017 20:00:00 15,9 8,6 11,5 14,6 15,5 4 2 11 6 SSW 1018,0 5 0 0,0
21.09.2017 19:00:00 18,7 9,5 15,8 14,6 15,5 8 5 19 10 SSW 1017,6 37 12 0,0
21.09.2017 18:00:00 20,2 8,2 19,2 14,5 15,5 8 4 21 11 S 1017,2 45 51 0,0
21.09.2017 17:00:00 20,2 7,9 20,7 14,5 15,6 16 9 28 15 S 1017,1 29 48 0,0
21.09.2017 16:00:00 20,0 8,6 21,7 14,5 15,6 14 8 32 17 SSE 1017,2 45 48 0,0
21.09.2017 15:00:00 20,1 8,1 26,1 14,5 15,6 19 11 29 16 SSE 1017,4 22 60 0,0
21.09.2017 14:00:00 19,7 8,7 25,7 14,5 15,6 20 11 34 18 S 1018,1 24 60 0,0
21.09.2017 13:00:00 18,8 9,6 23,6 14,5 15,6 18 10 29 15 S 1018,6 27 60 0,0
21.09.2017 12:00:00 17,3 9,2 21,9 14,5 15,6 16 9 23 13 S 1018,9 28 60 0,0
21.09.2017 11:00:00 15,0 10,4 15,4 14,6 15,6 9 5 14 7 SE 1019,2 24 60 0,0
21.09.2017 10:00:00 12,0 9,7 11,7 14,7 15,6 10 5 14 7 ESE 1019,5 21 60 0,0
21.09.2017 09:00:00 9,7 8,8 7,0 14,7 15,6 7 4 13 7 ESE 1019,5 16 44 0,0
21.09.2017 08:00:00 7,0 6,4 6,1 14,7 15,6 8 4 10 5 E 1019,7 9 0 0,0
21.09.2017 07:00:00 7,0 6,3 5,8 14,8 15,6 6 3 11 6 ESE 1019,5 9 0 0,2
21.09.2017 06:00:00 7,2 6,5 5,3 14,8 15,6 3 2 6 4 E 1019,5 11 0 0,0
21.09.2017 05:00:00 7,6 6,7 5,7 14,8 15,6 4 2 8 5 E 1019,8 12 0 0,0
21.09.2017 04:00:00 7,8 6,6 6,0 14,8 15,6 5 3 7 4 E 1020,1 16 0 0,0
21.09.2017 03:00:00 8,4 7,2 6,7 14,8 15,6 6 3 8 4 E 1020,3 21 0 0,0
21.09.2017 02:00:00 8,5 7,1 6,9 14,8 15,6 4 2 8 5 E 1020,5 28 0 0,0
21.09.2017 01:00:00 9,2 7,8 7,3 14,8 15,6 5 3 8 4 E 1020,4 30 0 0,0
21.09.2017 00:00:00 9,6 8,0 7,6 14,8 15,6 4 2 8 4 ESE 1020,4 33 0 0,0
20.09.2017 23:00:00 10,0 7,9 8,7 14,8 15,6 8 4 9 5 ESE 1020,4 19 0 0,0
20.09.2017 22:00:00 11,4 9,1 9,4 14,7 15,7 5 3 6 3 ESE 1020,5 19 0 0,0
20.09.2017 21:00:00 12,2 9,4 9,5 14,7 15,7 5 3 8 4 SSE 1020,7 15 0 0,0
20.09.2017 20:00:00 14,0 9,4 11,9 14,6 15,7 6 4 15 8 SSE 1020,5 44 0 0,0
20.09.2017 19:00:00 16,8 9,2 15,3 14,6 15,7 11 6 23 12 SSW 1020,5 44 41 0,0
20.09.2017 18:00:00 17,7 8,8 18,4 14,5 15,7 13 7 22 12 SW 1020,6 55 31 0,0
20.09.2017 17:00:00 17,5 8,6 20,6 14,5 15,7 15 8 23 12 SW 1021,2 20 51 0,0
20.09.2017 16:00:00 18,3 9,4 27,2 14,5 15,6 13 7 24 13 WSW 1021,4 20 60 0,0
20.09.2017 15:00:00 17,7 9,3 23,2 14,5 15,7 15 8 24 13 W 1021,7 37 24 0,0
20.09.2017 14:00:00 17,3 8,7 26,2 14,5 15,7 12 6 23 13 WSW 1022,0 13 47 0,0
20.09.2017 13:00:00 17,0 8,7 26,8 14,6 15,7 12 7 23 12 WSW 1022,3 24 60 0,0
20.09.2017 12:00:00 15,5 9,2 22,4 14,6 15,7 16 9 24 13 SW 1022,7 24 60 0,0

tt = Température de l'air
td = dewpoint
tt 5cm = Température de l'air 5cm
tt -20cm = Température de l'air -20cm
tt -100cm = Température de l'air -100cm
ff = Vitesse du vent
fx = gusts
dd = Direction du vent
ppp = reduced air pressure
vv = visibility
sd = Ensoleillement
rr = Quantités de précipitations

stations d'obs. à proximité